CW0099 Weather Reports


Display with metric or nautical units.
time (UTC)temp
F
wind
direction
speed
MPH
gust
MPH
rain 1hr
in
rain 24hr
in
rain mn
in
humidity
%
barometer
mb
20170822203952 79 356 0.0 9.0 0.00 0.31 0.31 76 1015.0
20170822201753 79 325 6.0 10.0 0.00 0.31 0.31 76 1015.1
20170822195552 79 327 10.0 13.0 0.00 0.31 0.31 78 1015.5
20170822194452 78 303 3.0 13.0 0.00 0.31 0.31 79 1015.5
20170822193352 78 343 3.0 3.0 0.00 0.31 0.31 82 1015.7
20170822191152 77 341 1.0 10.0 0.00 0.31 0.31 85 1015.8
20170822181652 73 349 3.0 9.0 0.00 0.31 0.31 95 1016.3
20170822180552 73 340 0.0 9.0 0.00 0.31 0.31 94 1016.4
20170822174352 75 10 0.0 11.0 0.00 0.31 0.31 96 1016.1
20170822173254 74 334 0.0 3.0 0.00 0.31 0.31 97 1016.1
20170822172152 74 333 2.0 10.0 0.00 0.31 0.31 97 1016.2
20170822165952 74 327 0.0 10.0 0.00 0.31 0.31 99 1015.9
20170822162652 72 340 0.0 11.0 0.00 0.31 0.31 100 1015.8
20170822161552 72 314 3.0 10.0 0.00 0.31 0.31 100 1015.9
20170822160452 72 336 0.0 4.0 0.00 0.31 0.31 100 1015.7
20170822154252 72 341 0.0 6.0 0.00 0.31 0.31 100 1015.6
20170822153154 72 341 0.0 0.0 0.01 0.31 0.31 100 1015.0
20170822152052 72 341 0.0 0.0 0.01 0.31 0.31 100 1015.0
20170822150952 72 342 0.0 0.0 0.01 0.31 0.31 100 1015.3
20170822144755 71 217 0.0 0.0 0.03 0.31 0.31 100 1015.1
20170822142552 71 217 0.0 0.0 0.08 0.30 0.30 100 1014.5
20170822141456 71 217 0.0 0.0 0.08 0.30 0.30 100 1014.3
20170822135252 71 167 0.0 6.0 0.09 0.30 0.30 100 1014.0
20170822131952 71 164 4.0 5.0 0.05 0.25 0.26 100 1014.3
20170822125752 71 176 0.0 3.0 0.04 0.22 0.22 99 1014.4
20170822124652 71 171 0.0 3.0 0.04 0.22 0.22 99 1014.3
20170822122452 71 1 0.0 0.0 0.21 0.21 0.21 98 1014.5
20170822115152 71 0 0.0 0.0 0.20 0.20 0.20 96 1014.2
20170822112952 72 340 0.0 7.0 0.18 0.18 0.18 93 1014.8
20170822110752 74 329 0.0 2.0 0.01 0.01 0.01 87 1014.5
20170822105653 74 6 0.0 6.0 0.00 0.00 0.00 86 1014.0
20170822104554 75 337 0.0 6.0 0.00 0.00 0.00 86 1013.8
20170822103452 75 22 0.0 6.0 0.00 0.00 0.00 83 1014.2
20170822102352 76 333 7.0 10.0 0.00 0.00 0.00 81 1014.4
20170822100152 77 14 0.0 17.0 0.00 0.00 0.00 80 1014.2
20170822091752 81 231 0.0 10.0 0.00 0.00 0.00 82 1013.3
20170822090652 81 280 0.0 5.0 0.00 0.00 0.00 82 1013.2
20170822085552 81 244 0.0 10.0 0.00 0.00 0.00 82 1013.0
20170822084452 81 187 0.0 7.0 0.00 0.00 0.00 82 1012.9
20170822082254 81 256 4.0 10.0 0.00 0.00 0.00 82 1013.2
20170822081152 81 247 3.0 10.0 0.00 0.00 0.00 82 1013.2
20170822072752 81 206 3.0 9.0 0.00 0.00 0.00 82 1013.5
20170822070552 81 217 0.0 3.0 0.00 0.00 0.00 82 1013.6
20170822065452 81 274 0.0 10.0 0.00 0.00 0.00 83 1013.7
20170822064352 81 186 0.0 7.0 0.00 0.00 0.00 83 1013.8
20170822063253 82 182 0.0 3.0 0.00 0.00 0.00 83 1013.9
20170822055952 82 168 0.0 12.0 0.00 0.00 0.00 81 1014.2
20170822053752 82 162 3.0 7.0 0.00 0.00 0.00 82 1014.6
20170822051552 82 185 0.0 9.0 0.00 0.00 0.00 82 1014.4
20170822050452 82 140 0.0 1.0 0.00 0.00 0.00 83 1014.7
20170822042056 82 181 0.0 6.0 0.00 0.00 0.00 84 1015.6
20170822040952 81 163 0.0 5.0 0.00 0.00 0.00 87 1015.1
20170822035852 79 140 0.0 0.0 0.00 0.00 0.00 88 1015.1
20170822034752 79 140 0.0 0.0 0.00 0.00 0.00 88 1015.0
20170822033652 79 140 0.0 0.0 0.00 0.00 0.00 87 1014.9
20170822021952 81 140 0.0 1.0 0.00 0.00 0.00 82 1015.9
20170822020852 81 140 0.0 1.0 0.00 0.00 0.00 82 1015.9
20170822014652 82 140 0.0 0.0 0.00 0.00 0.00 81 1015.8
20170822012452 83 140 0.0 0.0 0.00 0.00 0.00 79 1015.6
20170822002952 84 140 0.0 6.0 0.00 0.00 0.00 71 1015.8
20170822001852 85 140 0.0 6.0 0.00 0.00 0.00 70 1015.8
20170821235652 86 142 0.0 6.0 0.00 0.00 0.00 68 1015.8
20170821232352 88 136 0.0 6.0 0.00 0.00 0.00 64 1015.9
20170821231253 88 124 0.0 3.0 0.00 0.00 0.00 65 1015.8
20170821230152 88 124 0.0 2.0 0.00 0.00 0.00 66 1015.9
20170821223952 88 127 0.0 1.0 0.00 0.00 0.00 68 1016.1
20170821220653 88 97 0.0 0.0 0.00 0.00 0.00 65 1016.0
20170821211152 93 210 0.0 7.0 0.00 0.00 0.00 61 1015.9
20170821210056 92 327 0.0 7.0 0.00 0.00 0.00 61 1015.8